Regional Weather Roundup
Issued by NWS

Home | Current Version | Previous Version | Graphics & Text | Print | Product List | Glossary On
Versions: 1 2 3 4 5 6 7 8 9 10 11 12 13 14 15 16 17 18 19 20 21 22 23 24 25 26 27 28 29 30 31 32 33 34 35 36 37 38 39 40 41 42 43 44 45 46 47 48 49 50
000
ASUS43 KMKX 111321
RWRWI

WISCONSIN REGIONAL WEATHER ROUNDUP
NATIONAL WEATHER SERVICE MILWAUKEE/SULLIVAN WI
800 AM CDT FRI JUL 11 2014

NOTE: "FAIR" INDICATES FEW OR NO CLOUDS BELOW 12,000 FEET WITH NO
SIGNIFICANT WEATHER AND/OR OBSTRUCTIONS TO VISIBILITY.

WIZ001-002-006>008-014>016-023>028-111400-
NORTHWEST WISCONSIN

CITY           SKY/WX    TMP DP  RH WIND       PRES   REMARKS
SUPERIOR ARPT  CLOUDY    63  61  94 N5        29.94R
ASHLAND        LGT RAIN  63  60  90 S17G31    29.97F FOG
HAYWARD        HVY RAIN  63  61  93 S12       29.99F FOG
SIREN          LGT RAIN  64  62  94 S28G33    29.92F
RICE LAKE      RAIN      63  61  92 SE7       30.04S
LADYSMITH      LGT RAIN  64  60  88 SE7       30.09S
EAU CLAIRE     CLOUDY    66  60  81 S9        30.04F
MENOMONIE      CLOUDY    68  58  70 S12       30.05R
NEW RICHMOND   HVY RAIN  66  60  81 S3        30.04R
OSCEOLA        LGT RAIN  66  64  94 SE9       30.01F
$$

WIZ003>005-009-010-017-018-111400-
NORTH CENTRAL WISCONSIN

CITY           SKY/WX    TMP DP  RH WIND       PRES   REMARKS
WOODRUFF       CLOUDY    64  60  84 SW7       30.11F
RHINELANDER    CLOUDY    65  58  78 SW9       30.13F
EAGLE RIVER    CLOUDY    64  59  82 SW7       30.11F
LAND O LAKES   CLOUDY    64  60  88 S6        30.11F
PHILLIPS       DRIZZLE   63  60  91 S6        30.09F
TOMAHAWK       CLOUDY    63  59  86 CALM      30.13F
MEDFORD        CLOUDY    63  60  90 S6        30.12F
MERRILL        CLOUDY    66  60  79 S6        30.12F
$$

WIZ029-030-035-036-043>047-111400-
CENTRAL WISCONSIN

CITY           SKY/WX    TMP DP  RH WIND       PRES   REMARKS
WAUSAU         CLOUDY    68  60  75 SW6       30.12F
MOSINEE        SUNNY     66  63  88 S9        30.15S
MARSHFIELD     CLOUDY    65  61  87 S7        30.12F
STEVENS POINT  PTSUNNY   65  58  78 S9        30.15S
WAUPACA        PTSUNNY   69  61  75 S5        30.16S
WAUTOMA        PTSUNNY   68  61  78 S5        30.16F
WISC RAPIDS    PTSUNNY   68  60  75 S6        30.15S
CAMP DOUGLAS   CLOUDY    68  63  83 VRB5      30.13F
$$

WIZ011>013-019>022-031-037>040-048>050-111400-
NORTHEAST WISCONSIN

CITY           SKY/WX    TMP DP  RH WIND       PRES   REMARKS
ANTIGO         PTSUNNY   63  60  90 S7        30.15F
STURGEON BAY   MOSUNNY   64  52  63 S9        30.17S
GREEN BAY      MOSUNNY   68  59  73 S5        30.16S
MANITOWOC      PTSUNNY   64  53  67 S5        30.19R
APPLETON       MOSUNNY   66  55  68 SW8       30.17R
CLINTONVILLE   MOSUNNY   68  59  73 SW6       30.15S
OSHKOSH        SUNNY     67  58  72 S9        30.16S
$$

WIZ032>034-041-042-053>061-111400-
SOUTHWEST WISCONSIN

CITY           SKY/WX    TMP DP  RH WIND       PRES   REMARKS
LA CROSSE      CLOUDY    70  59  68 S14       30.08F
SPARTA         CLOUDY    68  58  70 S7        30.12F
VIROQUA        FAIR      64  59  85 S8        30.13F
BOSCOBEL       CLOUDY    69  58  67 S6        30.14F
PRAIRIE DU CHI LGT RAIN  67  56  68 SE5       30.12F
PLATTEVILLE    FAIR      68  59  74 S10       30.18S
$$

WIZ056-057-062-063-064-067-068-111400-
SOUTH CENTRAL WISCONSIN

CITY           SKY/WX    TMP DP  RH WIND       PRES   REMARKS
BARABOO/DELLS  PTSUNNY   70  57  64 S9        30.16S
LONE ROCK      CLOUDY    72  62  71 CALM      30.16R
WATERTOWN      SUNNY     66  57  73 S3        30.19R
MADISON        PTSUNNY   69  57  65 S9        30.18S
MIDDLETON      FAIR      70  57  63 S7        30.18S
MONROE         CLOUDY    64  59  82 S8        30.19S
JANESVILLE     SUNNY     66  55  68 VRB6      30.18S
$$

WIZ051-052-058>065-066-070>072-111400-
SOUTHEAST WISCONSIN

CITY           SKY/WX    TMP DP  RH WIND       PRES   REMARKS
MILWAUKEE      MOSUNNY   68  52  56 SW9       30.21R
WAUKESHA       SUNNY     64  52  63 S3        30.21R
MILWAUKEE/TIMM SUNNY     66  48  52 SW6       30.21R
RACINE         SUNNY     69  54  58 SW9       30.22S
BURLINGTON     SUNNY     64  55  74 S3        30.21R
KENOSHA        SUNNY     67  56  67 S6        30.22R
FOND DU LAC    SUNNY     68  56  65 SW9       30.18R
SHEBOYGAN      SUNNY     64  53  67 SW7       30.19R
WEST BEND      SUNNY     66  52  59 CALM      30.20S
JUNEAU         SUNNY     66  41  39 S9        30.20S
$$

LSZ147-162-111400-
LAKE SUPERIOR

STATION/POSITION TIME  TEMP    WIND        PRES    WAVE
                       AIR SEA DIR/SP/G            HT/PER
                 (UTC) (F)     (DEG/KT/KT) (MB)    (FT/S)
W MID LAKE BUOY  1250   49 38  190/ 12/ 14 1016.0F   1/ 3
PORT WING        1200   66     190/  8/ 15 1014.9S
SAXON HARBOR     1300          200/  5/ 18 1015.6F
$$

LMZ867-665-643>646-111400-
LAKE MICHIGAN

STATION/POSITION TIME  TEMP    WIND        PRES    WAVE
                       AIR SEA DIR/SP/G            HT/PER
                 (UTC) (F)     (DEG/KT/KT) (MB)    (FT/S)
N MID LAKE BUOY  1250   57 54  190/ 14/ 17 1021.1R   2/ 4
NORTHPORT PIER   1200   62     150/  6/ 10 1020.7R
KEWAUNEE LAKESHO 1300   53     180/  9/ 12 1022.3R
SHEBOYGAN LAKESH 1300   63     180/ 12/ 12 1022.5R
PORT WASHINGTON  1240   62     180/  4/  5 1023.0R
MILWAUKEE LAKESH 1300   67     200/  5/  6   N/A
S MID LAKE BUOY  1250   62 58  180/  6/  6 1023.3R   0
KENOSHA   LAKESH 1300   67     200/  5/  6   N/A
$$

TC  - TEMPERATURE IN CELSIUS
VSB - VISIBILITY IN STATUTE MILES
WCI - WIND CHILL INDEX
HX  - HEAT INDEX




USA.gov is the U.S. government's official web portal to all federal, state and local government web resources and services.